Montgomery, NY

5:11 AM EST on December 18, 2017 (GMT -0500)
Orange County

Weather History for KMGJ - February, 2013

Change the Weather History Date:

Saturday, February 2, 2013

  Actual Average (KSWF) Record (KSWF)
Temperature  
Mean Temperature 21 °F -  
Max Temperature 28 °F 35 °F 46 °F (2014)
Min Temperature 14 °F 17 °F 10 °F (2015)
Degree Days  
Heating Degree Days 44    
Moisture  
Dew Point 12 °F    
Average Humidity 71    
Maximum Humidity 86    
Minimum Humidity 37    
Precipitation  
Precipitation 0.01 in - - ()
Sea Level Pressure  
Sea Level Pressure 30.12 in    
Wind  
Wind Speed 6 mph (SW)    
Max Wind Speed 17 mph    
Max Gust Speed 23 mph    
Visibility 6 miles    
Events Snow    
Averages and records for this station are not official NWS values.
T = Trace of Precipitation, MM = Missing Value Source: NWS Daily Summary

Daily Weather History Graph

Daily Weather History Graph

Search for Another Location

Airport or City:

Trip Planner

Search our weather history database for the weather conditions in past years. The results will help you decide how hot, cold, wet, or windy it might be!

Date:

Astronomy

Feb. 02, 2013 Rise Set
Actual Time 7:07 AM EST 5:14 PM EST
Civil Twilight 6:38 AM EST 5:43 PM EST
Nautical Twilight 6:05 AM EST 6:16 PM EST
Astronomical Twilight 5:32 AM EST 6:49 PM EST
Moon No Moon Rise 10:10 AM EST (2/2)
Length of Visible Light 11h 05m
Length of Day
10h 07m
Waning Gibbous, 60% of the Moon is Illuminated
Feb 2
Waning Gibbous
Feb 3
Last Quarter
Feb 10
New
Feb 17
First Quarter
Feb 25
Full

Hourly Weather History & Observations

Time (EST) Temp. Windchill Dew Point Humidity Pressure Visibility Wind Dir Wind Speed Gust Speed Precip Events Conditions
12:54 AM 19.9 °F 12.1 °F 8.1 °F 60% 30.19 in 10.0 mi SW 5.8 mph - N/A   Clear
1:54 AM 19.0 °F 13.9 °F 8.1 °F 62% 30.21 in 10.0 mi WSW 3.5 mph - N/A   Clear
2:54 AM 18.0 °F - 10.0 °F 71% 30.22 in 10.0 mi Calm Calm - N/A   Clear
3:54 AM 19.0 °F 9.0 °F 8.1 °F 62% 30.23 in 10.0 mi WSW 8.1 mph - N/A   Partly Cloudy
4:54 AM 18.0 °F 8.7 °F 6.1 °F 60% 30.24 in 10.0 mi WSW 6.9 mph - N/A   Clear
5:54 AM 16.0 °F 7.4 °F 6.1 °F 65% 30.25 in 10.0 mi WSW 5.8 mph - N/A   Clear
6:54 AM 14.0 °F 6.5 °F 7.0 °F 74% 30.25 in 10.0 mi SW 4.6 mph - N/A   Clear
7:54 AM 16.0 °F 6.3 °F 8.1 °F 71% 30.26 in 10.0 mi SSW 6.9 mph - N/A   Clear
8:54 AM 19.0 °F 9.0 °F 7.0 °F 59% 30.27 in 10.0 mi SW 8.1 mph - N/A   Clear
9:54 AM 19.9 °F 11.1 °F 7.0 °F 57% 30.24 in 10.0 mi South 6.9 mph - N/A   Clear
10:54 AM 23.0 °F 13.9 °F 7.0 °F 50% 30.21 in 10.0 mi SSE 8.1 mph - N/A   Clear
11:54 AM 27.0 °F 15.6 °F 7.0 °F 43% 30.15 in 10.0 mi SW 13.8 mph - N/A   Scattered Clouds
12:54 PM 27.0 °F 15.2 °F 3.9 °F 37% 30.12 in 10.0 mi WSW 15.0 mph 23.0 mph N/A   Mostly Cloudy
1:54 PM 28.0 °F 16.5 °F 5.0 °F 38% 30.10 in 10.0 mi WSW 15.0 mph 23.0 mph N/A   Overcast
2:54 PM 25.0 °F 12.2 °F 6.1 °F 45% 30.09 in 10.0 mi SW 16.1 mph - N/A   Scattered Clouds
3:54 PM 24.1 °F 10.6 °F 8.1 °F 51% 30.08 in 10.0 mi SW 17.3 mph 21.9 mph N/A   Mostly Cloudy
4:54 PM 23.0 °F 10.6 °F 10.0 °F 58% 30.08 in 10.0 mi SW 13.8 mph - N/A   Overcast
5:54 PM 21.0 °F 8.6 °F 12.9 °F 71% 30.08 in 6.0 mi SW 12.7 mph - N/A   Haze
6:25 PM 21.2 °F 10.9 °F 15.8 °F 80% 30.07 in 2.5 mi WSW 9.2 mph - 0.00 in Snow Light Snow
6:32 PM 21.2 °F 11.7 °F 15.8 °F 80% 30.06 in 4.0 mi SW 8.1 mph - 0.00 in Snow Light Snow
6:54 PM 21.0 °F 12.4 °F 15.1 °F 78% 30.09 in 2.5 mi SSW 6.9 mph - 0.00 in Snow Light Snow
7:37 PM 21.2 °F 13.6 °F 15.8 °F 80% 30.07 in 1.8 mi SW 5.8 mph - 0.00 in Snow Light Snow
7:54 PM 21.0 °F 13.4 °F 17.1 °F 85% 30.09 in 2.0 mi SW 5.8 mph - 0.00 in Snow Light Snow
8:07 PM 21.2 °F 13.6 °F 17.6 °F 86% 30.07 in 3.0 mi SW 5.8 mph - 0.00 in Snow Light Snow
8:39 PM 21.2 °F 16.4 °F 17.6 °F 86% 30.06 in 2.5 mi SSW 3.5 mph - 0.00 in Snow Light Snow
8:46 PM 21.2 °F 16.4 °F 17.6 °F 86% 30.06 in 3.0 mi SSW 3.5 mph - 0.00 in Snow Light Snow
8:54 PM 21.0 °F - 17.1 °F 85% 30.08 in 3.0 mi Calm Calm - 0.00 in Snow Light Snow
9:54 PM 21.0 °F 16.2 °F 17.1 °F 85% 30.07 in 3.0 mi SSW 3.5 mph - 0.00 in Snow Light Snow
10:12 PM 21.2 °F 16.4 °F 17.6 °F 86% 30.05 in 2.5 mi South 3.5 mph - 0.00 in Snow Light Snow
10:33 PM 21.2 °F 16.4 °F 17.6 °F 86% 30.04 in 2.0 mi SSW 3.5 mph - 0.00 in Snow Light Snow
10:42 PM 21.2 °F 16.4 °F 17.6 °F 86% 30.04 in 3.0 mi SSW 3.5 mph - 0.00 in Snow Light Snow
10:54 PM 21.0 °F - 17.1 °F 85% 30.06 in 3.0 mi Calm Calm - 0.01 in Snow Light Snow
11:02 PM 21.2 °F - 17.6 °F 86% 30.04 in 2.0 mi Calm Calm - 0.00 in Snow Light Snow
11:11 PM 21.2 °F - 17.6 °F 86% 30.04 in 1.8 mi Calm Calm - 0.00 in Snow Light Snow
11:18 PM 21.2 °F 16.4 °F 17.6 °F 86% 30.04 in 2.0 mi SSW 3.5 mph - 0.00 in Snow Light Snow
11:33 PM 21.2 °F - 17.6 °F 86% 30.03 in 2.5 mi Calm Calm - 0.00 in Snow Light Snow
11:54 PM 21.0 °F - 17.1 °F 85% 30.04 in 2.5 mi Calm Calm - 0.00 in Snow Light Snow